[[{"header":{"parameterUnit":"m.s-1","parameterCategory":1,"la1":30.2991,"la2":30.254,"lo1":-89.0895,"lo2":-89.0444,"dy":0.0017,"dx":0.0017,"nx":28,"ny":28,"refTime":"2024-05-30T21:00:00:Z","depth":0,"parameterNumber":2,"parameterNumberName":"U-component_of_WINDS"},"data":[0,0,0,0,0,0,0,0,0,0,0,0,0,0,0,0,0,0,0,0,0,0,0,0,0,0,0,0,0,0,0,0,0,0,0,0,0,0,0,0,0,0,0,0,0,0,0,0,0,0,0,0,0,0,0,0,0,0,-5.1882,-5.1883,0,-5.1975,-5.1976,-5.1977,-5.1952,-5.1951,-5.1949,-5.1947,-5.2039,-5.2043,-5.2048,0,0,0,0,0,0,0,0,0,0,0,0,0,-5.1683,-5.1687,-5.1882,-5.1883,-5.1884,-5.1974,-5.1976,-5.1977,-5.1953,-5.1951,-5.1948,-5.1946,-5.2038,-5.2043,-5.2048,0,0,0,0,0,0,0,0,0,0,0,0,0,-5.1772,-5.1688,-5.1882,-5.1883,-5.1884,-5.1974,-5.1976,-5.1977,-5.1953,-5.195,-5.1948,-5.1945,-5.2036,-5.2042,-5.2049,-5.2142,0,0,-5.2068,-5.207,0,0,0,0,0,0,0,0,-5.1767,-5.1779,-5.1882,-5.1883,-5.1885,-5.1949,-5.1939,-5.2033,-5.1954,-5.1927,-5.1947,-5.1944,-5.2012,-5.202,-5.2043,-5.2147,-5.215,-5.2068,-5.2072,-5.2075,-5.2077,0,0,0,0,0,0,0,-5.1761,-5.1775,-5.1919,-5.1883,-5.1885,-5.1879,-5.1888,-5.1957,-5.1983,-5.1929,-5.1928,-5.1939,-5.2012,-5.2037,-5.2045,-5.2152,-5.2068,-5.2074,-5.2078,-5.208,-5.2337,-5.234,0,0,0,0,0,0,-5.1754,-5.177,-5.1916,-5.1921,-5.1818,-5.1885,-5.1895,-5.1931,-5.1983,-5.1988,-5.1941,-5.1938,-5.2028,-5.2038,-5.2048,-5.216,-5.2075,-5.2081,-5.2084,-5.2334,-5.2338,-5.2341,0,0,0,0,0,0,-5.175,-5.1767,-5.1912,-5.1846,-5.1863,-5.1891,-5.1932,-5.1935,-5.196,-5.1992,-5.1996,-5.1962,-5.2026,-5.2039,-5.2119,-5.2163,-5.2083,-5.2089,-5.233,-5.2335,-5.2339,-5.2386,0,0,0,0,0,0,-5.1744,-5.1766,-5.1802,-5.1847,-5.1867,-5.1982,-5.1934,-5.1938,-5.1971,-5.1967,-5.2013,-5.2018,-5.2025,-5.211,-5.2125,-5.217,-5.2094,-5.2326,-5.2332,-5.2338,-5.238,-5.2392,-5.2401,0,0,0,0,0,-5.1737,-5.1811,-5.1804,-5.1821,-5.1913,-5.1984,-5.1996,-5.2003,-5.1975,-5.2011,-5.2032,-5.2016,-5.2157,-5.2118,-5.2135,-5.2183,-5.2324,-5.2331,-5.2337,-5.2376,-5.2389,-5.2401,0,0,0,0,0,0,-5.1769,-5.1816,-5.1809,-5.1899,-5.1938,-5.198,-5.2026,-5.2018,-5.2065,-5.2059,-5.2065,-5.2076,-5.2158,-5.2179,-5.2135,-5.2276,-5.2236,-5.2246,-5.2259,-5.2272,-5.2282,-5.2274,-5.2099,0,0,0,0,0,-5.1787,-5.1842,-5.188,-5.1956,-5.1976,-5.1998,-5.2029,-5.2032,-5.2072,-5.2088,-5.2115,-5.2154,-5.2206,-5.2241,-5.2291,-5.2385,-5.2394,-5.2426,-5.2436,-5.2444,-5.2453,-5.2503,-5.2518,-5.2364,-5.2364,-5.2364,0,0,-5.1823,-5.1856,-5.189,-5.1963,-5.1993,-5.2049,-5.2012,-5.2072,-5.2114,-5.2097,-5.2174,-5.2195,-5.2239,-5.2326,-5.2366,-5.2346,-5.2498,-5.2453,-5.246,-5.2463,-5.2512,-5.2526,-5.2539,-5.2369,-5.2368,-5.2367,0,0,-5.1918,-5.1949,-5.2016,-5.2047,-5.2094,-5.2109,-5.2125,-5.2169,-5.2183,-5.226,-5.2249,-5.2299,-5.239,-5.2421,-5.2449,-5.2559,-5.2546,-5.2576,-5.2628,-5.2677,-5.2689,-5.27,-5.2738,-5.2751,-5.2584,-5.2584,-5.2585,0,-5.1957,-5.2042,-5.205,-5.2113,-5.2145,-5.2134,-5.2201,-5.2232,-5.2292,-5.2315,-5.2293,-5.2407,-5.2436,-5.253,-5.2557,-5.2581,-5.2599,-5.2569,-5.2687,-5.2698,-5.2708,-5.2744,-5.2758,-5.2588,-5.2587,-5.2587,-5.2587,0,-5.2087,-5.2146,-5.2194,-5.2254,-5.2292,-5.2356,-5.2375,-5.2412,-5.2413,-5.2429,-5.2509,-5.2544,-5.2601,-5.2624,-5.2624,-5.2718,-5.2705,-5.2685,-5.2644,-5.2725,-5.2759,-5.2773,-5.2592,-5.2591,-5.259,-5.2589,0,0,-5.2201,-5.2267,-5.2284,-5.2312,-5.2364,-5.2409,-5.2474,-5.2531,-5.2562,-5.2606,-5.2659,-5.2737,-5.272,-5.2752,-5.2756,-5.28,-5.2883,-5.2774,-5.2775,-5.2792,-5.2988,-5.3001,-5.3016,-5.2876,-5.2879,-5.2881,-5.2983,0,-5.2299,-5.2413,-5.2424,-5.2525,-5.2579,-5.2571,-5.2627,-5.2665,-5.2683,-5.2731,-5.2751,-5.2806,-5.278,-5.2799,-5.2842,-5.2864,-5.2922,-5.2857,-5.2924,-5.2927,-5.2911,-5.3034,-5.3048,-5.3143,-5.2997,-5.2999,-5.3001,0,-5.2428,-5.2476,-5.2583,-5.2628,-5.2651,-5.2702,-5.2755,-5.2802,-5.2845,-5.2855,-5.2892,-5.2891,-5.2957,-5.2916,-5.3006,-5.2962,-5.2991,-5.3006,-5.301,-5.3014,-5.2967,-5.304,-5.3173,-5.3186,-5.3022,-5.302,-5.3019,0,-5.2499,-5.259,-5.2666,-5.269,-5.2745,-5.278,-5.2805,-5.2846,-5.2879,-5.2927,-5.2949,-5.3003,-5.3032,-5.3074,-5.3087,-5.3056,-5.3177,-5.3137,-5.3186,-5.3186,-5.3209,-5.3207,-5.3346,-5.3232,-5.3232,-5.3232,-5.3231,0,-5.2606,-5.2671,-5.2699,-5.2745,-5.2818,-5.2831,-5.2902,-5.2925,-5.2962,-5.3012,-5.3009,-5.3056,-5.3072,-5.3122,-5.3134,-5.3206,-5.322,-5.3229,-5.3231,-5.3228,-5.3227,-5.3245,-5.3238,-5.3235,-5.3235,-5.3234,-5.3233,0,-5.2695,-5.2717,-5.2799,-5.2845,-5.2858,-5.291,-5.2949,-5.2994,-5.3013,-5.3076,-5.3092,-5.3121,-5.318,-5.3198,-5.3269,-5.3277,-5.3361,-5.3358,-5.3346,-5.3346,-5.3393,-5.3388,-5.3547,-5.3568,-5.3442,-5.3443,-5.3444,0,-5.2761,-5.2811,-5.2864,-5.2897,-5.2924,-5.2978,-5.3013,-5.3028,-5.3065,-5.3119,-5.3157,-5.3216,-5.3263,-5.3357,-5.3384,-5.3438,-5.3435,-5.3488,-5.3443,-5.3439,-5.3434,-5.343,-5.3434,-5.3495,-5.3496,-5.3497,-5.3498,0,-5.2874,-5.2883,-5.2934,-5.2989,-5.3031,-5.3075,-5.3118,-5.3146,-5.3167,-5.3208,-5.3269,-5.3306,-5.3379,-5.3437,-5.3492,-5.3517,-5.3511,-5.3513,-5.3527,-5.3523,-5.3513,-5.3517,-5.3367,-5.3508,-5.3507,-5.3506,-5.3506,-5.3506,-5.2953,-5.2997,-5.3041,-5.3098,-5.3132,-5.3172,-5.3216,-5.3241,-5.3292,-5.3353,-5.3359,-5.3424,-5.3467,-5.3542,-5.357,-5.3621,-5.3606,-5.3626,-5.3631,-5.3635,-5.3638,-5.3508,-5.3631,-5.3631,-5.3631,-5.3631,-5.363,0,-5.3065,-5.3093,-5.3146,-5.3205,-5.3251,-5.3243,-5.329,-5.3328,-5.3385,-5.3427,-5.3474,-5.3544,-5.36,-5.3633,-5.3689,-5.3724,-5.3723,-5.3738,-5.3734,-5.374,-5.3649,-5.363,-5.3738,-5.3738,-5.3738,-5.3738,-5.3738,-5.3738,-5.3128,-5.3202,-5.3216,-5.3307,-5.3335,-5.34,-5.3427,-5.3464,-5.3497,-5.3575,-5.3622,-5.3644,-5.3681,-5.3741,-5.3793,-5.3801,-5.3821,-5.3838,-5.3844,-5.3758,-5.3746,-5.3736,-5.3718,-5.3842,-5.3843,-5.393,-5.3931,-5.3931]},{"header":{"parameterUnit":"m.s-1","parameterCategory":1,"la1":30.2991,"la2":30.254,"lo1":-89.0895,"lo2":-89.0444,"dy":0.0017,"dx":0.0017,"nx":28,"ny":28,"refTime":"2024-05-30T21:00:00:Z","depth":0,"parameterNumber":3,"parameterNumberName":"V-component_of_WINDS"},"data":[0,0,0,0,0,0,0,0,0,0,0,0,0,0,0,0,0,0,0,0,0,0,0,0,0,0,0,0,0,0,0,0,0,0,0,0,0,0,0,0,0,0,0,0,0,0,0,0,0,0,0,0,0,0,0,0,0,0,3.3978,3.3978,0,3.3898,3.3897,3.3896,3.3853,3.3853,3.3853,3.3853,3.3764,3.3761,3.3759,0,0,0,0,0,0,0,0,0,0,0,0,0,3.409,3.4088,3.3978,3.3977,3.3976,3.3898,3.3897,3.3896,3.3853,3.3853,3.3853,3.3853,3.3764,3.3762,3.3759,0,0,0,0,0,0,0,0,0,0,0,0,0,3.4029,3.4088,3.3979,3.3946,3.3942,3.3898,3.3897,3.3895,3.3853,3.3853,3.3853,3.3853,3.3765,3.3762,3.3759,3.3739,0,0,3.3748,3.3746,0,0,0,0,0,0,0,0,3.4032,3.4025,3.3952,3.3948,3.3944,3.3886,3.3904,3.3843,3.3853,3.3887,3.3853,3.3853,3.3804,3.3797,3.3782,3.3735,3.3731,3.3748,3.3745,3.3744,3.3743,0,0,0,0,0,0,0,3.4037,3.4028,3.3946,3.3951,3.3946,3.3934,3.3925,3.3892,3.3846,3.3884,3.388,3.3872,3.3802,3.3786,3.378,3.373,3.3748,3.3745,3.3742,3.3741,3.3663,3.3663,0,0,0,0,0,0,3.4047,3.4032,3.3949,3.3944,3.3989,3.3932,3.3922,3.3904,3.3847,3.3838,3.3872,3.387,3.3792,3.3784,3.3776,3.375,3.3744,3.3741,3.3739,3.3663,3.3663,3.3663,0,0,0,0,0,0,3.405,3.404,3.3952,3.3987,3.3975,3.393,3.3911,3.3903,3.3887,3.3838,3.3829,3.3864,3.3791,3.3781,3.3749,3.3746,3.3739,3.3736,3.3663,3.3663,3.3663,3.3698,0,0,0,0,0,0,3.4053,3.4041,3.4034,3.3987,3.3973,3.3928,3.391,3.3901,3.3882,3.3878,3.3828,3.382,3.379,3.3755,3.3746,3.3742,3.3733,3.3663,3.3663,3.3663,3.3697,3.3699,3.3701,0,0,0,0,0,3.4057,3.4045,3.4034,3.4024,3.3964,3.3928,3.392,3.3888,3.3882,3.3874,3.3843,3.3822,3.3749,3.3752,3.3741,3.3736,3.3663,3.3663,3.3663,3.3696,3.3698,3.3701,0,0,0,0,0,0,3.409,3.4039,3.4025,3.3999,3.3969,3.3921,3.391,3.3892,3.386,3.3858,3.3818,3.3807,3.3779,3.3754,3.3759,3.3715,3.3704,3.3702,3.3732,3.3734,3.3736,3.3742,3.373,0,0,0,0,0,3.4095,3.4072,3.4027,3.4008,3.3994,3.3955,3.3938,3.3916,3.3882,3.3868,3.3835,3.3801,3.3771,3.3751,3.372,3.3693,3.3682,3.3685,3.3687,3.3689,3.3687,3.3671,3.3672,3.3664,3.3664,3.3664,0,0,3.4103,3.4072,3.406,3.4014,3.3988,3.3963,3.3944,3.3918,3.3899,3.3863,3.3832,3.3807,3.3766,3.3737,3.3723,3.3716,3.3687,3.3689,3.3691,3.3688,3.3672,3.3673,3.3673,3.3664,3.3664,3.3664,0,0,3.4106,3.4081,3.4063,3.4038,3.4,3.3974,3.397,3.3926,3.3909,3.3877,3.385,3.3826,3.3775,3.3747,3.3727,3.3722,3.3702,3.3713,3.3724,3.3709,3.371,3.371,3.3709,3.3708,3.3712,3.3712,3.3712,0,3.4121,3.4085,3.4055,3.4032,3.4012,3.3982,3.3962,3.3939,3.3892,3.3879,3.3872,3.3808,3.3779,3.3743,3.3743,3.3727,3.372,3.3718,3.3713,3.3713,3.3713,3.371,3.371,3.3714,3.3714,3.3713,3.3713,0,3.4105,3.408,3.407,3.4029,3.4008,3.3986,3.3952,3.3934,3.3915,3.389,3.3859,3.3823,3.3785,3.3775,3.3755,3.3737,3.3734,3.3721,3.3709,3.3716,3.3713,3.3712,3.3716,3.3716,3.3715,3.3715,0,0,3.4124,3.4069,3.4065,3.4047,3.4004,3.3983,3.3961,3.3927,3.3912,3.3881,3.3861,3.3819,3.3808,3.3784,3.3761,3.3748,3.3747,3.3737,3.3735,3.3739,3.3725,3.3735,3.3735,3.3734,3.3734,3.3734,3.3729,0,3.412,3.4081,3.4054,3.4024,3.4001,3.3973,3.3954,3.3925,3.3901,3.3877,3.385,3.3821,3.3808,3.3794,3.3781,3.3751,3.3744,3.3751,3.3713,3.3712,3.3723,3.3733,3.3743,3.3739,3.3727,3.3727,3.3727,0,3.411,3.4084,3.4053,3.4014,3.4003,3.3986,3.3953,3.3931,3.3898,3.3881,3.3857,3.3834,3.3808,3.38,3.3763,3.3768,3.3751,3.3735,3.3734,3.3728,3.3719,3.3727,3.3737,3.3737,3.3725,3.3725,3.3725,0,3.4128,3.4084,3.406,3.4045,3.3999,3.3988,3.3968,3.3934,3.3916,3.3887,3.3874,3.3841,3.3823,3.3798,3.3766,3.3763,3.3732,3.3721,3.3717,3.3718,3.371,3.3711,3.3718,3.3701,3.3701,3.3701,3.3701,0,3.4126,3.4108,3.4067,3.4052,3.4031,3.4,3.3979,3.3957,3.3928,3.3907,3.388,3.3861,3.3821,3.3797,3.3772,3.3745,3.3737,3.3722,3.3715,3.3724,3.3726,3.3711,3.371,3.3701,3.3701,3.3701,3.3701,0,3.4141,3.4113,3.4085,3.4045,3.4035,3.4021,3.3986,3.397,3.3946,3.392,3.3912,3.3874,3.3844,3.3811,3.3769,3.3752,3.3727,3.3718,3.3739,3.3735,3.3732,3.3733,3.3729,3.3727,3.3713,3.3713,3.3714,0,3.4141,3.4127,3.4087,3.4073,3.4054,3.4031,3.4013,3.3982,3.3964,3.3926,3.3914,3.3883,3.3856,3.3809,3.3777,3.3745,3.3734,3.3735,3.3729,3.3738,3.3733,3.3734,3.3733,3.3736,3.3737,3.3737,3.3737,0,3.4145,3.4132,3.4109,3.4081,3.4061,3.4036,3.4011,3.4,3.3964,3.3945,3.3915,3.3895,3.3854,3.3822,3.3787,3.3764,3.3744,3.374,3.3737,3.3745,3.3758,3.375,3.3743,3.374,3.3739,3.3739,3.3739,3.3739,3.4152,3.4139,3.4109,3.4084,3.4062,3.4039,3.4023,3.3998,3.3974,3.394,3.3923,3.3893,3.3861,3.3812,3.379,3.3766,3.3759,3.3755,3.3754,3.3753,3.3755,3.3763,3.3759,3.3759,3.3759,3.3759,3.3759,0,3.4154,3.4134,3.4112,3.4078,3.4058,3.4045,3.4016,3.3999,3.3975,3.3947,3.3923,3.3889,3.3859,3.3826,3.3794,3.378,3.377,3.3773,3.3773,3.3768,3.3763,3.3769,3.3782,3.3782,3.3782,3.3782,3.3782,3.3782,3.4153,3.413,3.4114,3.408,3.406,3.4033,3.4018,3.3996,3.3974,3.3939,3.3915,3.3895,3.3864,3.383,3.3802,3.3793,3.3781,3.3787,3.3775,3.377,3.3768,3.3766,3.3771,3.3785,3.3785,3.3781,3.3781,3.3781]}]]